Powrót do katalogu

COSMOS 2251 DEB

AktywnyLEO
NORAD 35825·DEBRIS·🇷🇺 Russia

Wystrzelony Jun 16, 1993 z Plesetsk Cosmodrome

Loading…

Następne Przeloty (najbliższe 24 godziny)

TLE

Starzejące sięSource: Space-Track

Epoka: Sep 9, 2026, 18:36 UTC

1 35825U 93036ASX 26252.77514527  .00001041  00000-0  75128-3 0  9991
2 35825  74.1108  56.6444 0352493  87.8624 276.2809 13.71838543862245

Śledź COSMOS 2251 DEB w czasie rzeczywistym z AllMySat

Download on the App Store